FW4370 Weather Reports


time (UTC)temp
F
wind
direction
speed
knots
gust
knots
rain 1hr
in
rain 24hr
in
rain mn
in
humidity
%
barometer
mb
20260507040001 59 272 4.3 9.6 0.00 0.00 0.00 24 1011.7
20260507034559 59 250 4.3 11.3 0.00 0.00 0.00 23 1011.4
20260507033057 60 237 4.3 9.6 0.00 0.00 0.00 23 1011.5
20260507031556 60 246 4.3 10.4 0.00 0.00 0.00 22 1011.2
20260507030054 60 254 4.3 7.0 0.00 0.00 0.00 21 1011.0
20260507024550 61 240 3.5 7.8 0.00 0.00 0.00 21 1010.8
20260507023049 62 247 3.5 10.4 0.00 0.00 0.00 20 1010.6
20260507021547 63 259 3.5 7.8 0.00 0.00 0.00 20 1010.4
20260507020100 64 244 3.5 9.6 0.00 0.00 0.00 19 1010.3
20260507014547 66 228 3.5 11.3 0.00 0.00 0.00 19 1010.2
20260507013043 67 245 2.6 9.6 0.00 0.00 0.00 18 1010.2
20260507011542 67 266 4.3 8.7 0.00 0.00 0.00 18 1010.3
20260507010055 69 267 4.3 8.7 0.00 0.00 0.00 18 1010.2
20260507004537 69 212 4.3 11.3 0.00 0.00 0.00 17 1010.1
20260507003035 70 238 5.2 11.3 0.00 0.00 0.00 17 1009.9
20260507001534 72 185 4.3 9.6 0.00 0.00 0.00 17 1009.8
20260507000031 71 286 5.2 12.2 0.00 0.00 0.00 17 1009.7
20260506234531 72 272 3.5 7.0 0.00 0.00 0.00 17 1009.8
20260506233028 72 259 5.2 13.0 0.00 0.00 0.00 17 1009.7
20260506231526 73 217 3.5 12.2 0.00 0.00 0.00 18 1009.9
20260506230027 72 193 4.3 9.6 0.00 0.00 0.00 17 1009.8
20260506224521 72 274 4.3 11.3 0.00 0.00 0.00 17 1010.1
20260506223017 72 229 3.5 10.4 0.00 0.00 0.00 17 1010.3
20260506221514 72 237 4.3 10.4 0.00 0.00 0.00 18 1010.6
20260506220016 72 143 0.9 8.7 0.00 0.00 0.00 18 1010.7
20260506214509 73 282 3.5 8.7 0.00 0.00 0.00 18 1010.9
20260506213005 72 292 3.5 11.3 0.00 0.00 0.00 19 1011.0
20260506211601 72 267 3.5 7.8 0.00 0.00 0.00 19 1011.5
20260506210105 70 304 3.5 9.6 0.00 0.00 0.00 20 1011.5
20260506204604 70 288 0.9 3.5 0.00 0.00 0.00 20 1011.6
20260506203048 70 292 1.7 7.0 0.00 0.00 0.00 21 1011.8
20260506201548 69 73 2.6 6.1 0.00 0.00 0.00 21 1012.0
20260506200039 69 44 0.9 7.8 0.00 0.00 0.00 21 1012.1
20260506194533 68 353 1.7 7.0 0.00 0.00 0.00 22 1012.3
20260506193027 68 238 0.9 7.8 0.00 0.00 0.00 23 1012.5
20260506191523 66 32 4.3 10.4 0.00 0.00 0.00 23 1012.7
20260506190027 66 306 1.7 10.4 0.00 0.00 0.00 23 1012.9
20260506184521 66 323 2.6 7.8 0.00 0.00 0.00 24 1012.9
20260506183016 64 303 0.9 7.8 0.00 0.00 0.00 25 1012.9
20260506181514 64 327 3.5 8.7 0.00 0.00 0.00 26 1013.3
20260506180019 64 319 2.6 7.8 0.00 0.00 0.00 27 1013.2
20260506174516 64 251 2.6 8.7 0.00 0.00 0.00 28 1013.2
20260506173004 61 275 1.7 8.7 0.00 0.00 0.00 29 1013.3
20260506171501 61 312 1.7 6.1 0.00 0.00 0.00 30 1013.2
20260506170100 62 283 0.9 4.3 0.00 0.00 0.00 32 1013.3
20260506164553 60 262 1.7 6.1 0.00 0.00 0.00 33 1013.2
20260506163051 59 297 0.0 4.3 0.00 0.00 0.00 34 1013.1
20260506161549 59 268 1.7 4.3 0.00 0.00 0.00 36 1013.0
20260506160058 58 258 0.0 4.3 0.00 0.00 0.00 37 1013.2
20260506154541 57 328 0.9 5.2 0.00 0.00 0.00 38 1013.1
20260506153039 56 171 1.7 5.2 0.00 0.00 0.00 39 1013.0
20260506151541 56 259 0.9 4.3 0.00 0.00 0.00 41 1013.0
20260506150131 55 198 0.9 2.6 0.00 0.00 0.00 42 1013.2
20260506144528 54 160 0.9 3.5 0.00 0.00 0.00 42 1013.0
20260506143022 52 228 0.9 2.6 0.00 0.00 0.00 43 1012.9
20260506141518 52 281 0.0 3.5 0.00 0.00 0.00 43 1012.9
20260506140018 52 281 0.0 0.9 0.00 0.00 0.00 44 1012.8
20260506134511 51 110 0.0 0.9 0.00 0.00 0.00 44 1012.7
20260506133005 49 264 0.0 0.9 0.00 0.00 0.00 44 1012.7
20260506131617 45 264 0.0 0.0 0.00 0.00 0.00 43 1012.4
20260506130057 42 28 0.0 1.7 0.00 0.00 0.00 43 1012.0
20260506124552 44 281 0.0 2.6 0.00 0.00 0.00 42 1012.0
20260506123052 44 278 0.0 1.7 0.00 0.00 0.00 42 1011.8
20260506121547 43 274 0.0 1.7 0.00 0.00 0.00 41 1011.6
20260506120048 43 275 0.0 1.7 0.00 0.00 0.00 41 1011.4
20260506114543 44 266 0.0 2.6 0.00 0.00 0.00 40 1011.4
20260506113037 44 286 0.9 3.5 0.00 0.00 0.00 40 1011.5
20260506111534 44 255 0.9 3.5 0.00 0.00 0.00 40 1011.4
20260506110034 45 275 0.0 5.2 0.00 0.00 0.00 39 1011.4
20260506104531 45 268 0.9 3.5 0.00 0.00 0.00 39 1011.3
20260506103025 45 272 0.9 3.5 0.00 0.00 0.00 38 1011.2
20260506101521 44 247 0.9 5.2 0.00 0.00 0.00 38 1011.1
20260506100023 44 243 0.0 2.6 0.00 0.00 0.00 38 1011.0
20260506094514 44 238 0.9 3.5 0.00 0.00 0.00 37 1011.0
20260506093010 45 287 0.0 2.6 0.00 0.00 0.00 37 1011.0
20260506091508 45 274 0.9 4.3 0.00 0.00 0.00 37 1011.0
20260506090004 45 276 0.9 3.5 0.00 0.00 0.00 36 1010.9
20260506084503 46 257 0.9 3.5 0.00 0.00 0.00 36 1010.9
20260506083058 45 246 0.9 3.5 0.00 0.00 0.00 36 1010.9
20260506081555 45 251 0.0 3.5 0.00 0.00 0.00 35 1010.9
20260506073041 45 233 0.0 2.6 0.00 0.00 0.00 34 1010.9
20260506071538 46 260 0.9 3.5 0.00 0.00 0.00 34 1010.8
20260506061524 47 266 0.0 3.5 0.00 0.00 0.00 32 1010.2
20260506044511 47 262 0.0 0.9 0.00 0.00 0.00 29 1009.9
20260506043003 48 243 0.0 1.7 0.00 0.00 0.00 29 1009.8
20260506041605 49 243 0.0 2.6 0.00 0.00 0.00 29 1009.5